This is the latest recevied weather packets stored in our database for station/object KA3BQE-13. If no packets are shown the sender has not sent any weather packets the latest 10 day(s).
| Time | Temp. | Humidity | Pressure | Rain* | Wind** | Luminosity | Snow |
|---|---|---|---|---|---|---|---|
| 1777753266 | 13.89° C | 45% | 1020.4 hPa | 0 mm | - | 191 W/m² | - |
| 1777752962 | 13.33° C | 39% | 1020.3 hPa | 0 mm | - | 879 W/m² | - |
| 1777752658 | 15° C | 37% | 1020.6 hPa | 0 mm | - | 636 W/m² | - |
| 1777752354 | 14.44° C | 36% | 1020.6 hPa | 0 mm | - | 412 W/m² | - |
| 1777752052 | 14.44° C | 37% | 1020.7 hPa | 0 mm | - | 298 W/m² | - |
| 1777751749 | 13.89° C | 37% | 1020.7 hPa | 0 mm | - | 840 W/m² | - |
| 1777751446 | 12.78° C | 41% | 1020.7 hPa | 0 mm | - | 349 W/m² | - |
| 1777751142 | 12.78° C | 40% | 1020.7 hPa | 0 mm | - | 331 W/m² | - |
| 1777750838 | 12.78° C | 42% | 1020.9 hPa | 0 mm | - | 353 W/m² | - |
| 1777750536 | 12.78° C | 42% | 1021 hPa | 0 mm | - | 292 W/m² | - |
| 1777750232 | 12.78° C | 40% | 1021 hPa | 0 mm | - | 275 W/m² | - |
| 1777749928 | 12.22° C | 39% | 1021 hPa | 0 mm | - | 262 W/m² | - |
| 1777749626 | 12.78° C | 36% | 1020.9 hPa | 0 mm | - | 256 W/m² | - |
| 1777749322 | 13.89° C | 40% | 1020.8 hPa | 0 mm | - | 276 W/m² | - |
| 1777749020 | 15° C | 40% | 1021 hPa | 0 mm | - | 878 W/m² | - |
| 1777748717 | 13.89° C | 42% | 1020.9 hPa | 0 mm | - | 994 W/m² | - |
| 1777748414 | 12.78° C | 40% | 1021 hPa | 0 mm | - | 978 W/m² | - |
| 1777748109 | 12.22° C | 39% | 1021 hPa | 0 mm | - | 246 W/m² | - |
| 1777747806 | 12.78° C | 44% | 1021 hPa | 0 mm | - | 256 W/m² | - |
| 1777747501 | 12.78° C | 45% | 1020.9 hPa | 0 mm | - | 344 W/m² | - |
| 1777747198 | 12.78° C | 38% | 1021 hPa | 0 mm | - | 443 W/m² | - |
| 1777746894 | 12.78° C | 42% | 1021.2 hPa | 0 mm | - | 453 W/m² | - |
| 1777746589 | 11.67° C | 40% | 1021.2 hPa | 0 mm | - | 291 W/m² | - |
| 1777746285 | 12.22° C | 44% | 1021.3 hPa | 0 mm | - | 274 W/m² | - |
| 1777745981 | 12.78° C | 43% | 1021.2 hPa | 0 mm | - | 265 W/m² | - |
* Rain latest hour (hover to see other rain measurements)
** Current wind speed in m/s (hover to see current wind gust speed)